{"data":{"norad_id":56456,"intl_designator":"2023-064J","name":"STARLINK-5995","alt_names":[],"object_type":"PAYLOAD","status":"ACTIVE","operator":null,"country":"US","launch_date":"2023-05-10","launch_site_code":"AFWTR","launch_vehicle":null,"mission":null,"orbit_class":"UNKNOWN","rcs_meters":null,"size_class":null,"mass_kg":null,"dimensions":null,"purposes":["comms"],"wikipedia_slug":null,"has_3d_model":false,"image_url":null,"decayed_at":null,"tle_current":{"epoch":"2026-09-20T10:04:27.630336Z","epoch_age_seconds":118986,"freshness":"FRESH","line1":"1 56456U 23064J   26263.41976424  .00000127  00000+0  18399-4 0  9990","line2":"2 56456  70.0008  13.5180 0003137 272.9664  87.1136 14.98334996184411","mean_motion":14.98334996,"eccentricity":0.0003137,"inclination_deg":70.0008,"raan_deg":13.518,"arg_perigee_deg":272.9664,"mean_anomaly_deg":87.1136,"bstar":1.8399e-5,"rev_number":18441,"period_min":96.106678669608,"perigee_km":569.86017060614,"apogee_km":574.22071193279,"semimajor_km":6950.1774412695,"source":"CELESTRAK","updated_at":"2026-09-21T09:00:33.442500Z"}}}